Theta_e
291 293 295 293 291 298 313 315 317 318 316 313 311 308 307 304 303 303 304 305 304 305 306 306 307 308 308 306 305 305 304 303
293 294 294 294 293 292 301 313 316 317 317 315 311 308 307 304 304 304 304 305 304 305 305 306 306 307 308 306 305 305 304 303
291 292 293 294 295 294 294 305 314 317 317 314 311 308 306 304 304 304 304 305 305 305 305 306 307 307 307 306 306 305 304 303
289 290 291 293 295 295 292 295 311 316 317 314 310 308 306 304 303 304 304 304 305 305 305 305 307 307 307 307 306 306 305 304
285 290 292 293 295 296 291 294 309 315 316 313 310 308 306 305 303 303 304 304 304 305 305 306 307 308 307 307 306 305 305 305
284 286 290 292 297 297 293 299 311 315 314 313 311 309 307 304 303 303 304 304 305 304 305 305 307 307 307 307 306 305 303 304
284 286 287 289 295 299 297 301 314 313 313 313 309 308 306 304 302 303 303 303 304 304 304 304 306 300 300 304 306 305 304 303
284 285 286 288 292 299 299 302 312 311 312 310 308 306 305 303 302 302 302 303 303 303 304 304 305 298 299 299 306 305 305 304
285 285 286 288 290 292 302 305 310 311 310 308 306 305 304 302 302 302 302 302 303 303 303 304 304 298 298 297 305 305 305 304
286 286 286 286 287 290 300 303 307 308 308 306 306 304 302 302 302 302 303 302 302 302 303 303 303 297 297 301 304 303 302 302
286 286 286 286 286 292 298 300 303 306 305 306 305 303 302 302 302 303 303 302 302 301 303 299 302 296 297 303 305 303 301 299
286 285 285 286 286 286 289 289 291 301 304 304 304 303 303 302 302 302 302 301 300 300 301 301 301 298 297 300 304 304 302 301
284 285 285 285 285 284 284 286 288 295 299 300 301 301 302 302 301 301 301 300 299 299 297 296 297 296 297 298 301 301 303 302
282 284 284 284 284 283 284 285 286 291 291 292 294 295 300 300 300 299 300 299 297 298 296 294 294 297 297 297 297 297 300 302
281 281 282 282 283 283 284 285 287 289 290 291 292 292 294 298 299 299 299 298 296 296 295 295 293 295 297 300 298 292 293 292
279 279 280 281 282 282 283 284 285 287 288 289 290 293 292 294 296 298 300 299 297 297 297 294 294 295 297 300 299 298 293 291
277 277 277 278 280 280 282 284 284 285 286 287 287 289 290 291 290 291 294 295 295 296 297 293 296 294 295 296 295 292 292 288
274 275 275 275 278 278 279 282 284 284 285 286 286 287 289 290 292 289 289 292 293 294 294 294 294 293 294 294 293 293 295 289
271 272 272 273 276 277 277 280 283 284 284 285 286 286 287 288 290 291 291 290 288 290 293 292 292 293 293 293 294 291 291 290
270 269 270 272 273 274 275 279 282 283 284 285 285 286 286 287 288 289 291 291 290 288 289 289 292 292 292 294 293 291 291 290
Wind_Speed
24 19 18 15 13 13 17 19 20 23 20 17 18 17 16 15 16 16 14 13 13 13 12 12 10 10 9 6 5 6 4 4
21 18 17 15 12 12 14 18 19 20 20 20 19 18 16 16 16 16 15 15 15 15 13 13 12 10 10 8 8 8 7 5
20 18 16 15 12 13 14 18 20 19 19 20 18 18 18 17 17 17 17 16 16 15 14 13 12 11 12 10 9 10 10 8
21 17 15 15 15 14 15 19 19 19 20 19 19 19 20 19 18 17 17 17 16 15 16 15 14 12 11 11 10 10 10 10
22 20 16 16 16 14 14 15 18 19 21 20 21 20 19 17 18 18 18 17 17 16 16 15 14 13 12 11 10 9 9 10
22 21 19 17 17 14 11 11 15 18 20 19 18 18 17 17 17 17 17 17 17 16 15 15 14 11 14 12 12 11 9 9
23 22 21 19 19 15 11 8 14 17 18 16 16 17 17 16 17 16 16 16 16 16 16 16 12 16 17 15 12 12 11 10
21 21 19 19 19 16 11 7 13 14 14 15 16 17 16 16 17 17 17 16 16 16 16 16 15 20 20 18 11 12 11 11
20 21 21 20 19 18 12 7 10 10 13 15 16 16 15 16 17 16 15 16 16 16 16 15 12 21 21 19 12 11 11 12
17 19 18 18 19 17 12 7 3 10 13 15 16 15 15 16 16 14 14 14 14 14 16 16 13 21 22 18 12 10 11 10
18 18 19 21 20 16 9 7 2 8 12 14 15 16 16 16 16 14 13 14 11 13 15 16 14 21 24 19 10 11 8 7
16 14 18 19 18 16 13 12 12 3 11 13 14 15 15 14 13 13 13 12 12 13 12 14 15 17 25 20 12 11 10 9
16 14 16 18 16 16 15 15 13 7 6 10 11 9 10 14 12 13 13 13 12 12 9 8 11 18 22 20 16 15 13 12
13 15 13 17 16 17 17 15 12 5 2 5 7 7 10 12 12 10 13 12 11 11 10 8 7 11 24 20 18 18 11 9
13 14 15 14 16 15 16 16 12 5 1 4 6 6 6 7 9 10 10 10 10 11 10 9 8 9 11 12 11 12 8 13
10 12 14 15 14 16 18 17 15 9 4 1 3 7 6 5 6 8 9 11 11 10 11 12 11 11 18 17 12 11 10 10
9 11 13 14 13 15 16 16 14 11 7 4 1 3 4 5 4 8 6 14 14 17 14 7 8 17 19 18 17 20 23 5
9 9 11 12 12 14 15 14 14 12 11 6 3 1 4 4 7 6 5 6 13 15 14 17 16 21 21 21 23 25 18 5
7 7 10 10 11 14 14 12 12 12 13 7 6 2 1 3 5 6 8 7 3 6 12 13 18 21 23 23 18 11 4 5
5 5 8 9 12 14 14 12 10 9 9 8 7 5 2 2 3 4 7 7 7 5 5 10 18 20 22 26 11 12 10 8
Wind_Direction
307 303 299 286 272 241 218 209 202 200 196 193 192 187 182 178 176 179 175 169 171 178 182 178 178 176 174 171 166 170 176 181
303 307 296 285 277 265 239 215 208 205 197 192 191 185 182 181 178 177 171 170 174 176 180 181 179 175 177 176 166 175 166 168
306 305 298 292 285 269 250 229 210 202 197 193 188 183 180 181 178 173 174 175 175 173 178 182 182 175 177 174 172 172 171 172
311 302 302 304 294 281 255 234 213 199 195 186 189 188 183 180 175 174 170 174 173 174 177 179 182 177 177 176 173 175 172 171
315 308 309 306 294 291 268 235 209 197 195 188 188 188 181 176 174 175 173 172 175 178 179 178 178 179 173 171 171 171 167 171
317 313 311 314 305 304 280 245 199 195 198 191 183 182 178 175 174 175 176 174 176 174 176 174 178 179 174 172 170 167 161 164
322 317 315 315 309 307 295 258 194 198 197 181 172 176 177 171 170 170 176 175 173 176 175 176 180 173 169 167 169 167 168 167
322 318 316 316 311 308 301 272 200 198 181 172 166 173 175 168 167 171 175 173 174 177 176 181 183 167 167 163 168 167 172 165
328 325 324 322 317 315 309 272 205 184 168 161 163 169 168 169 169 172 172 176 176 176 177 178 182 168 166 163 163 167 171 166
324 324 324 329 324 316 312 310 226 153 161 159 162 161 166 172 171 168 170 175 178 177 175 176 177 169 165 163 166 166 166 162
324 330 337 345 338 327 324 336 202 150 153 158 158 161 171 172 168 166 172 175 173 176 180 175 168 173 168 170 167 168 162 156
327 340 341 340 342 347 348 353 329 259 151 158 163 166 168 166 161 161 167 166 173 173 178 173 166 174 171 171 169 173 169 170
330 335 342 342 347 350 350 332 321 318 152 153 161 162 165 163 162 165 164 165 168 170 167 169 163 172 176 171 165 163 173 179
323 319 342 344 349 349 343 336 325 308 144 143 142 153 163 161 162 162 168 168 168 171 172 166 159 170 177 169 154 161 162 169
332 334 338 343 342 346 344 344 341 340 141 134 129 132 147 159 164 165 170 171 168 168 170 166 163 165 171 175 158 146 129 137
336 331 335 337 342 343 347 352 356 354 1 111 127 151 146 142 163 172 178 170 168 173 169 166 176 183 176 172 168 164 150 124
336 337 336 334 335 347 347 352 355 355 356 342 75 127 135 136 94 37 160 160 168 166 168 175 172 163 171 167 148 140 138 110
330 325 327 330 337 353 343 343 357 355 352 348 353 116 143 144 150 134 40 125 153 155 155 171 160 155 162 148 145 150 141 136
313 332 327 333 342 346 338 338 351 358 355 356 352 343 100 149 149 147 149 149 122 137 154 149 155 160 157 148 138 152 132 152
301 330 326 345 343 341 337 341 342 355 360 355 355 1 357 113 123 138 149 151 148 127 80 151 152 153 151 155 158 165 175 170